UPS475 SACO-SCEL

Flight info

Callsign UPS475
Flight time 1h 7m
Altitude 37000
Route ALDEX1C ALDEX UZ105 UMKAL UMKAL7C
Aircraft A20N/M-SDE2E3FGHIRWXY/LB1

Departure

Time 2026-05-01 10:21
Airport Ingeniero Aeronáutico Ambrosio L.V. Taravella International Airport (SACO)

Arrival

Time 2026-05-01 11:28
Airport Comodoro Arturo Merino Benítez International Airport (SCEL)
Time Latitude Longitude Altitude Speed Heading
2026-05-01 10:05 -31.31407 -64.21184 1561 ft 0 kts 261°
2026-05-01 10:13 -31.31405 -64.21173 1562 ft 2 kts 258°
2026-05-01 10:13 -31.31402 -64.21154 1562 ft 2 kts 260°
2026-05-01 10:13 -31.31399 -64.21135 1562 ft 2 kts 258°
2026-05-01 10:14 -31.31388 -64.21099 1562 ft 2 kts 202°
2026-05-01 10:14 -31.31378 -64.21097 1563 ft 1 kts 179°
2026-05-01 10:16 -31.31448 -64.21080 1561 ft 10 kts 155°
2026-05-01 10:17 -31.31530 -64.21073 1559 ft 14 kts 188°
2026-05-01 10:17 -31.31756 -64.21068 1552 ft 13 kts 145°
2026-05-01 10:17 -31.31850 -64.21028 1550 ft 16 kts 173°
2026-05-01 10:18 -31.32126 -64.21019 1537 ft 24 kts 178°
2026-05-01 10:18 -31.32282 -64.21018 1535 ft 21 kts 178°
2026-05-01 10:18 -31.32404 -64.20987 1529 ft 15 kts 130°
2026-05-01 10:19 -31.32423 -64.20875 1530 ft 15 kts 78°
2026-05-01 10:19 -31.32356 -64.20814 1535 ft 9 kts
2026-05-01 10:19 -31.32323 -64.20817 1532 ft 0 kts 352°
2026-05-01 10:20 -31.32190 -64.20819 1539 ft 49 kts 360°
2026-05-01 10:20 -31.31625 -64.20819 1553 ft 111 kts 358°
2026-05-01 10:20 -31.30697 -64.20839 1679 ft 145 kts 359°
2026-05-01 10:21 -31.29693 -64.20799 2235 ft 146 kts
2026-05-01 10:21 -31.27604 -64.20735 3264 ft 159 kts 358°
2026-05-01 10:21 -31.26441 -64.20759 3612 ft 177 kts 357°
2026-05-01 10:22 -31.23725 -64.20870 4450 ft 215 kts 357°
2026-05-01 10:22 -31.20467 -64.21083 5346 ft 254 kts 348°
2026-05-01 10:23 -31.18773 -64.21847 5938 ft 269 kts 329°
2026-05-01 10:23 -31.15788 -64.24563 7574 ft 276 kts 321°
2026-05-01 10:23 -31.14281 -64.25958 8391 ft 279 kts 321°
2026-05-01 10:24 -31.12035 -64.29517 9992 ft 280 kts 282°
2026-05-01 10:24 -31.11892 -64.34351 10612 ft 321 kts 270°
2026-05-01 10:25 -31.11923 -64.39695 11860 ft 332 kts 271°
2026-05-01 10:25 -31.11924 -64.45119 13333 ft 338 kts 271°
2026-05-01 10:26 -31.11916 -64.47864 14050 ft 340 kts 271°
2026-05-01 10:26 -31.11927 -64.50628 14693 ft 343 kts 268°
2026-05-01 10:26 -31.12737 -64.56150 16006 ft 350 kts 258°
2026-05-01 10:27 -31.13900 -64.61710 17261 ft 356 kts 258°
2026-05-01 10:27 -31.15064 -64.67360 18452 ft 362 kts 258°
2026-05-01 10:28 -31.15651 -64.70216 19019 ft 364 kts 258°
2026-05-01 10:28 -31.16837 -64.75987 20117 ft 369 kts 258°
2026-05-01 10:28 -31.17435 -64.78900 20700 ft 371 kts 259°
2026-05-01 10:29 -31.18642 -64.84788 21799 ft 376 kts 259°
2026-05-01 10:29 -31.19315 -64.87748 22349 ft 381 kts 252°
2026-05-01 10:30 -31.22337 -64.92917 23381 ft 401 kts 225°
2026-05-01 10:30 -31.27235 -64.96253 24291 ft 414 kts 212°
2026-05-01 10:31 -31.32384 -64.99320 25168 ft 419 kts 212°
2026-05-01 10:31 -31.37592 -65.02448 26033 ft 424 kts 212°
2026-05-01 10:32 -31.42859 -65.05620 26827 ft 429 kts 212°
2026-05-01 10:32 -31.45514 -65.07222 27212 ft 431 kts 212°
2026-05-01 10:32 -31.50864 -65.10450 27966 ft 436 kts 212°
2026-05-01 10:33 -31.56280 -65.13723 28655 ft 441 kts 212°
2026-05-01 10:33 -31.61732 -65.17039 29296 ft 443 kts 215°
2026-05-01 10:34 -31.64218 -65.19117 29581 ft 438 kts 226°
2026-05-01 10:34 -31.66257 -65.21727 29890 ft 433 kts 238°
2026-05-01 10:34 -31.67781 -65.24738 30165 ft 429 kts 249°
2026-05-01 10:35 -31.70014 -65.31220 30753 ft 431 kts 251°
2026-05-01 10:35 -31.71133 -65.34477 31076 ft 431 kts 251°
2026-05-01 10:35 -31.72252 -65.37732 31466 ft 430 kts 251°
2026-05-01 10:35 -31.73366 -65.40978 31850 ft 429 kts 252°
2026-05-01 10:36 -31.75579 -65.47442 32617 ft 426 kts 252°
2026-05-01 10:36 -31.76678 -65.50660 32995 ft 424 kts 252°
2026-05-01 10:36 -31.77773 -65.53867 33356 ft 423 kts 252°
2026-05-01 10:37 -31.78864 -65.57069 33687 ft 422 kts 252°
2026-05-01 10:37 -31.81036 -65.63450 34326 ft 420 kts 252°
2026-05-01 10:37 -31.82114 -65.66623 34604 ft 418 kts 252°
2026-05-01 10:38 -31.83190 -65.69790 34872 ft 417 kts 253°
2026-05-01 10:38 -31.84262 -65.72950 35141 ft 416 kts 253°
2026-05-01 10:38 -31.85331 -65.76104 35405 ft 416 kts 253°
2026-05-01 10:38 -31.86396 -65.79251 35660 ft 415 kts 253°
2026-05-01 10:39 -31.87459 -65.82394 35869 ft 414 kts 253°
2026-05-01 10:39 -31.88520 -65.85532 36111 ft 413 kts 253°
2026-05-01 10:39 -31.89576 -65.88660 36346 ft 412 kts 253°
2026-05-01 10:39 -31.90631 -65.91785 36572 ft 411 kts 253°
2026-05-01 10:40 -31.91683 -65.94907 36773 ft 411 kts 253°
2026-05-01 10:40 -31.92734 -65.98028 36846 ft 411 kts 253°
2026-05-01 10:40 -31.94824 -66.04255 36845 ft 409 kts 253°
2026-05-01 10:41 -31.96906 -66.10480 36848 ft 410 kts 253°
2026-05-01 10:42 -32.00029 -66.19832 36847 ft 410 kts 253°
2026-05-01 10:42 -32.02111 -66.26080 36845 ft 410 kts 253°
2026-05-01 10:43 -32.04187 -66.32324 36841 ft 410 kts 253°
2026-05-01 10:43 -32.06261 -66.38570 36839 ft 410 kts 253°
2026-05-01 10:44 -32.08332 -66.44820 36836 ft 410 kts 253°
2026-05-01 10:44 -32.10372 -66.51086 36835 ft 409 kts 256°
2026-05-01 10:45 -32.11938 -66.57497 36839 ft 407 kts 259°
2026-05-01 10:45 -32.13470 -66.63917 36844 ft 408 kts 259°
2026-05-01 10:46 -32.15003 -66.70347 36846 ft 408 kts 259°
2026-05-01 10:46 -32.16531 -66.76788 36845 ft 408 kts 259°
2026-05-01 10:47 -32.18055 -66.83230 36844 ft 409 kts 259°
2026-05-01 10:47 -32.19577 -66.89682 36851 ft 409 kts 259°
2026-05-01 10:48 -32.21097 -66.96145 36852 ft 410 kts 259°
2026-05-01 10:48 -32.22617 -67.02618 36850 ft 410 kts 259°
2026-05-01 10:49 -32.24135 -67.09102 36855 ft 411 kts 259°
2026-05-01 10:49 -32.25653 -67.15600 36852 ft 411 kts 259°
2026-05-01 10:50 -32.27167 -67.22101 36849 ft 411 kts 259°
2026-05-01 10:50 -32.28680 -67.28610 36848 ft 412 kts 259°
2026-05-01 10:51 -32.30190 -67.35123 36844 ft 412 kts 259°
2026-05-01 10:51 -32.31696 -67.41638 36844 ft 412 kts 259°
2026-05-01 10:52 -32.33199 -67.48155 36838 ft 412 kts 259°
2026-05-01 10:52 -32.34698 -67.54673 36842 ft 412 kts 259°
2026-05-01 10:53 -32.36194 -67.61195 36840 ft 412 kts 259°
2026-05-01 10:53 -32.37685 -67.67712 36844 ft 411 kts 259°
2026-05-01 10:54 -32.39174 -67.74234 36842 ft 411 kts 259°
2026-05-01 10:54 -32.40659 -67.80758 36842 ft 412 kts 259°
2026-05-01 10:55 -32.42142 -67.87287 36844 ft 412 kts 259°
2026-05-01 10:55 -32.43621 -67.93818 36845 ft 412 kts 259°
2026-05-01 10:56 -32.45097 -68.00353 36722 ft 412 kts 259°
2026-05-01 10:56 -32.45835 -68.03630 36360 ft 413 kts 259°
2026-05-01 10:56 -32.46572 -68.06905 35984 ft 412 kts 259°
2026-05-01 10:56 -32.47309 -68.10180 35606 ft 413 kts 259°
2026-05-01 10:57 -32.48046 -68.13463 35263 ft 414 kts 259°
2026-05-01 10:57 -32.48784 -68.16757 34989 ft 415 kts 259°
2026-05-01 10:57 -32.49524 -68.20061 34895 ft 416 kts 258°
2026-05-01 10:57 -32.50253 -68.23356 34638 ft 412 kts 257°
2026-05-01 10:58 -32.50979 -68.26611 34373 ft 409 kts 257°
2026-05-01 10:58 -32.51707 -68.29875 34125 ft 413 kts 257°
2026-05-01 10:58 -32.52442 -68.33171 33873 ft 416 kts 257°
2026-05-01 10:58 -32.53182 -68.36487 33581 ft 418 kts 257°
2026-05-01 10:59 -32.53920 -68.39810 33287 ft 418 kts 257°
2026-05-01 10:59 -32.54658 -68.43143 32997 ft 419 kts 257°
2026-05-01 10:59 -32.55398 -68.46483 32723 ft 421 kts 256°
2026-05-01 10:59 -32.56138 -68.49830 32474 ft 422 kts 256°
2026-05-01 11:00 -32.56882 -68.53194 32233 ft 423 kts 256°
2026-05-01 11:00 -32.57624 -68.56558 32009 ft 424 kts 256°
2026-05-01 11:00 -32.58370 -68.59941 31783 ft 425 kts 256°
2026-05-01 11:00 -32.59114 -68.63322 31555 ft 426 kts 256°
2026-05-01 11:01 -32.59859 -68.66714 31330 ft 426 kts 256°
2026-05-01 11:01 -32.60606 -68.70117 31112 ft 427 kts 256°
2026-05-01 11:01 -32.61352 -68.73524 30892 ft 428 kts 256°
2026-05-01 11:01 -32.62098 -68.76934 30681 ft 429 kts 256°
2026-05-01 11:02 -32.62846 -68.80355 30466 ft 429 kts 256°
2026-05-01 11:02 -32.63590 -68.83768 30252 ft 427 kts 256°
2026-05-01 11:02 -32.64333 -68.87173 30040 ft 426 kts 256°
2026-05-01 11:02 -32.65071 -68.90565 29804 ft 425 kts 256°
2026-05-01 11:03 -32.65805 -68.93944 29576 ft 423 kts 256°
2026-05-01 11:03 -32.66535 -68.97307 29316 ft 421 kts 256°
2026-05-01 11:03 -32.67263 -69.00665 29066 ft 421 kts 256°
2026-05-01 11:03 -32.67987 -69.04009 28834 ft 418 kts 256°
2026-05-01 11:04 -32.68705 -69.07332 28592 ft 416 kts 256°
2026-05-01 11:04 -32.69420 -69.10645 28353 ft 415 kts 256°
2026-05-01 11:04 -32.70133 -69.13949 28126 ft 413 kts 256°
2026-05-01 11:04 -32.70840 -69.17232 27896 ft 410 kts 256°
2026-05-01 11:05 -32.71543 -69.20503 27675 ft 409 kts 256°
2026-05-01 11:05 -32.72243 -69.23765 27452 ft 408 kts 256°
2026-05-01 11:05 -32.72940 -69.27017 27234 ft 406 kts 256°
2026-05-01 11:05 -32.73632 -69.30248 27018 ft 404 kts 256°
2026-05-01 11:06 -32.74319 -69.33463 26808 ft 401 kts 256°
2026-05-01 11:06 -32.75000 -69.36650 26599 ft 398 kts 256°
2026-05-01 11:06 -32.75679 -69.39830 26390 ft 398 kts 256°
2026-05-01 11:07 -32.77022 -69.46140 25965 ft 392 kts 256°
2026-05-01 11:07 -32.77687 -69.49272 25793 ft 391 kts 256°
2026-05-01 11:07 -32.78347 -69.52382 25588 ft 388 kts 256°
2026-05-01 11:07 -32.79003 -69.55481 25370 ft 385 kts 257°
2026-05-01 11:08 -32.79653 -69.58541 25174 ft 381 kts 256°
2026-05-01 11:08 -32.80298 -69.61592 24992 ft 383 kts 256°
2026-05-01 11:08 -32.81581 -69.67674 24600 ft 377 kts 257°
2026-05-01 11:09 -32.82213 -69.70683 24413 ft 375 kts 257°
2026-05-01 11:09 -32.82843 -69.73680 24206 ft 373 kts 257°
2026-05-01 11:09 -32.83469 -69.76666 24145 ft 374 kts 257°
2026-05-01 11:10 -32.84718 -69.82625 24145 ft 373 kts 257°
2026-05-01 11:10 -32.85342 -69.85609 24156 ft 372 kts 257°
2026-05-01 11:10 -32.85963 -69.88590 24158 ft 372 kts 257°
2026-05-01 11:10 -32.86582 -69.91557 24161 ft 370 kts 257°
2026-05-01 11:11 -32.87199 -69.94523 24016 ft 371 kts 257°
2026-05-01 11:11 -32.87750 -69.97510 23683 ft 367 kts 261°
2026-05-01 11:11 -32.88016 -70.00484 23278 ft 358 kts 267°
2026-05-01 11:11 -32.88005 -70.03405 22902 ft 352 kts 273°
2026-05-01 11:12 -32.87759 -70.06272 22505 ft 346 kts 275°
2026-05-01 11:12 -32.87493 -70.09086 22088 ft 340 kts 275°
2026-05-01 11:12 -32.87243 -70.11849 21714 ft 334 kts 275°
2026-05-01 11:12 -32.86998 -70.14572 21343 ft 329 kts 275°
2026-05-01 11:13 -32.86754 -70.17250 20960 ft 324 kts 275°
2026-05-01 11:13 -32.86510 -70.19885 20588 ft 319 kts 275°
2026-05-01 11:13 -32.86270 -70.22483 20229 ft 315 kts 275°
2026-05-01 11:13 -32.86032 -70.25057 19855 ft 312 kts 275°
2026-05-01 11:14 -32.85795 -70.27604 19497 ft 309 kts 276°
2026-05-01 11:14 -32.85561 -70.30119 19142 ft 305 kts 276°
2026-05-01 11:14 -32.85329 -70.32607 18795 ft 302 kts 276°
2026-05-01 11:14 -32.85099 -70.35080 18439 ft 300 kts 276°
2026-05-01 11:15 -32.84870 -70.37543 18037 ft 301 kts 276°
2026-05-01 11:15 -32.84639 -70.40018 17627 ft 302 kts 276°
2026-05-01 11:15 -32.84409 -70.42483 17245 ft 300 kts 276°
2026-05-01 11:15 -32.84181 -70.44935 16851 ft 299 kts 277°
2026-05-01 11:16 -32.83951 -70.47396 16469 ft 300 kts 277°
2026-05-01 11:16 -32.83721 -70.49853 16090 ft 299 kts 277°
2026-05-01 11:16 -32.83491 -70.52297 15711 ft 297 kts 277°
2026-05-01 11:16 -32.83263 -70.54719 15344 ft 294 kts 277°
2026-05-01 11:17 -32.83036 -70.57126 14924 ft 294 kts 278°
2026-05-01 11:17 -32.82806 -70.59540 14495 ft 294 kts 278°
2026-05-01 11:17 -32.82577 -70.61951 14074 ft 294 kts 278°
2026-05-01 11:17 -32.82348 -70.64361 13628 ft 294 kts 278°
2026-05-01 11:18 -32.82194 -70.65970 13313 ft 294 kts 278°
2026-05-01 11:18 -32.82213 -70.69198 12696 ft 298 kts 257°
2026-05-01 11:18 -32.83157 -70.71398 12247 ft 304 kts 232°
2026-05-01 11:18 -32.84665 -70.73154 11795 ft 302 kts 225°
2026-05-01 11:19 -32.86193 -70.74813 11354 ft 296 kts 225°
2026-05-01 11:19 -32.87697 -70.76446 10922 ft 290 kts 225°
2026-05-01 11:19 -32.89163 -70.78048 10483 ft 284 kts 225°
2026-05-01 11:19 -32.90594 -70.79620 10074 ft 278 kts 225°
2026-05-01 11:20 -32.92195 -70.80888 9612 ft 278 kts 205°
2026-05-01 11:20 -32.94056 -70.81443 9158 ft 276 kts 188°
2026-05-01 11:20 -32.95950 -70.81710 8708 ft 273 kts 188°
2026-05-01 11:20 -32.97834 -70.81988 8270 ft 275 kts 188°
2026-05-01 11:21 -32.99740 -70.82275 7833 ft 278 kts 187°
2026-05-01 11:21 -33.01677 -70.82336 7395 ft 281 kts 177°
2026-05-01 11:21 -33.02970 -70.82256 7115 ft 282 kts 177°
2026-05-01 11:21 -33.05594 -70.82106 6551 ft 284 kts 177°
2026-05-01 11:22 -33.06910 -70.82023 6264 ft 285 kts 177°
2026-05-01 11:22 -33.09556 -70.81853 5666 ft 287 kts 177°
2026-05-01 11:22 -33.11553 -70.81745 5239 ft 288 kts 177°
2026-05-01 11:22 -33.13527 -70.81640 5041 ft 279 kts 177°
2026-05-01 11:23 -33.15426 -70.81538 4919 ft 268 kts 177°
2026-05-01 11:23 -33.17251 -70.81440 4796 ft 258 kts 177°
2026-05-01 11:23 -33.18999 -70.81347 4673 ft 246 kts 177°
2026-05-01 11:23 -33.20663 -70.81258 4562 ft 236 kts 177°
2026-05-01 11:24 -33.22270 -70.81172 4423 ft 227 kts 177°
2026-05-01 11:24 -33.23832 -70.81089 4185 ft 222 kts 177°
2026-05-01 11:24 -33.26260 -70.80958 3727 ft 199 kts 177°
2026-05-01 11:25 -33.28015 -70.80864 3433 ft 183 kts 177°
2026-05-01 11:25 -33.30481 -70.80732 2918 ft 170 kts 177°
2026-05-01 11:25 -33.31592 -70.80673 2681 ft 151 kts 177°
2026-05-01 11:26 -33.32586 -70.80620 2476 ft 137 kts 176°
2026-05-01 11:26 -33.34472 -70.80518 2117 ft 136 kts 176°
2026-05-01 11:26 -33.35413 -70.80468 1943 ft 136 kts 176°
2026-05-01 11:27 -33.36040 -70.80433 1829 ft 136 kts 176°
2026-05-01 11:27 -33.37296 -70.80367 1613 ft 136 kts 176°
2026-05-01 11:27 -33.38210 -70.80322 1559 ft 121 kts 176°
2026-05-01 11:27 -33.38848 -70.80283 1560 ft 63 kts 176°
2026-05-01 11:28 -33.39133 -70.80267 1559 ft 34 kts 176°
2026-05-01 11:28 -33.39353 -70.80177 1559 ft 34 kts 149°
2026-05-01 11:28 -33.39484 -70.80048 1559 ft 17 kts 146°
2026-05-01 11:29 -33.39532 -70.79955 1559 ft 3 kts 77°
2026-05-01 11:29 -33.39526 -70.79918 1559 ft 6 kts 77°
2026-05-01 11:29 -33.39431 -70.79891 1559 ft 10 kts 358°
2026-05-01 11:30 -33.39362 -70.79866 1559 ft 11 kts 46°
2026-05-01 11:30 -33.39343 -70.79772 1559 ft 13 kts 86°
2026-05-01 11:30 -33.39337 -70.79658 1560 ft 15 kts 87°
2026-05-01 11:30 -33.39332 -70.79528 1560 ft 17 kts 87°
2026-05-01 11:31 -33.39326 -70.79384 1561 ft 18 kts 87°
2026-05-01 11:31 -33.39320 -70.79228 1561 ft 20 kts 87°
2026-05-01 11:31 -33.39224 -70.79148 1561 ft 19 kts 352°
2026-05-01 11:31 -33.39091 -70.79156 1561 ft 15 kts 347°
2026-05-01 11:32 -33.38999 -70.79208 1561 ft 14 kts 335°
2026-05-01 11:32 -33.38916 -70.79219 1560 ft 11 kts 357°
2026-05-01 11:32 -33.38835 -70.79223 1560 ft 9 kts 358°
2026-05-01 11:32 -33.38820 -70.79209 1560 ft 2 kts 90°
2026-05-01 11:33 -33.38821 -70.79178 1560 ft 0 kts 90°